FW4321 Weather Reports


time (UTC)temp
C
wind
direction
speed
KPH
gust
KPH
rain 1hr
cm
rain 24hr
cm
rain mn
cm
humidity
%
barometer
mb
20260506143042 21 110 1.6 12.9 0.00 0.00 0.00 65 1015.7
20260506141528 21 224 1.6 9.7 0.00 0.00 0.00 66 1015.8
20260506140033 21 223 3.2 17.7 0.00 0.00 0.00 67 1015.8
20260506134524 20 303 3.2 19.3 0.00 0.00 0.00 67 1016.0
20260506133025 20 277 4.8 17.7 0.00 0.00 0.00 67 1016.0
20260506131526 20 53 3.2 14.5 0.00 0.00 0.00 68 1016.1
20260506130021 20 294 4.8 12.9 0.00 0.00 0.00 69 1015.9
20260506124519 19 80 1.6 12.9 0.00 0.00 0.00 71 1016.1
20260506123020 19 360 3.2 12.9 0.00 0.00 0.00 71 1016.1
20260506121516 18 360 3.2 14.5 0.00 0.00 0.00 72 1016.3
20260506120017 18 360 1.6 14.5 0.00 0.00 0.00 73 1016.3
20260506114520 18 360 3.2 24.1 0.00 0.00 0.00 74 1016.5
20260506113015 18 360 0.0 9.7 0.00 0.00 0.00 75 1016.3
20260506111515 18 360 1.6 8.0 0.00 0.00 0.00 76 1016.2
20260506110014 17 360 3.2 9.7 0.00 0.00 0.00 77 1016.3
20260506104516 17 360 0.0 8.0 0.00 0.00 0.00 78 1016.3
20260506103016 17 360 0.0 14.5 0.00 0.00 0.00 78 1016.3
20260506101522 17 360 1.6 8.0 0.00 0.00 0.00 79 1016.1
20260506100014 17 360 0.0 8.0 0.00 0.00 0.00 78 1016.3
20260506094515 17 360 1.6 6.4 0.00 0.00 0.00 79 1016.0
20260506093009 17 360 1.6 8.0 0.00 0.00 0.00 78 1016.1
20260506091507 17 360 3.2 9.7 0.00 0.00 0.00 78 1016.1
20260506090008 17 360 3.2 12.9 0.00 0.00 0.00 77 1016.5
20260506084512 17 360 1.6 8.0 0.00 0.00 0.00 77 1016.4
20260506083002 17 360 1.6 14.5 0.00 0.00 0.00 77 1016.4
20260506081506 17 360 3.2 9.7 0.00 0.00 0.00 76 1016.5
20260506073106 17 360 3.2 9.7 0.00 0.00 0.00 75 1016.6
20260506071612 17 360 1.6 9.7 0.00 0.00 0.00 74 1016.8
20260506070103 17 360 4.8 9.7 0.00 0.00 0.00 73 1016.7
20260506061548 19 333 1.6 9.7 0.00 0.00 0.00 69 1016.5
20260506044538 20 69 3.2 11.3 0.00 0.00 0.00 66 1017.1
20260506043036 20 246 3.2 22.5 0.00 0.00 0.00 65 1017.2
20260506041546 20 360 1.6 14.5 0.00 0.00 0.00 64 1017.2
20260506040033 20 15 3.2 12.9 0.00 0.00 0.00 63 1017.0
20260506034531 20 264 4.8 14.5 0.00 0.00 0.00 62 1017.1
20260506033032 21 15 6.4 19.3 0.00 0.00 0.00 62 1017.0
20260506031531 20 146 4.8 25.7 0.00 0.00 0.00 61 1016.9
20260506030033 21 130 3.2 14.5 0.00 0.00 0.00 61 1016.8
20260506024532 21 300 1.6 11.3 0.00 0.00 0.00 60 1017.0
20260506023028 21 192 4.8 19.3 0.00 0.00 0.00 60 1017.0
20260506021529 21 248 1.6 6.4 0.00 0.00 0.00 60 1016.9
20260506020028 21 302 1.6 14.5 0.00 0.00 0.00 60 1016.8
20260506014542 21 98 1.6 8.0 0.00 0.00 0.00 60 1016.8
20260506013030 21 53 1.6 6.4 0.00 0.00 0.00 60 1016.6
20260506011526 21 92 3.2 17.7 0.00 0.00 0.00 59 1016.6
20260506010028 21 88 4.8 16.1 0.00 0.00 0.00 58 1016.3
20260506004536 21 64 0.0 9.7 0.00 0.00 0.00 58 1016.2
20260506003025 21 88 1.6 6.4 0.00 0.00 0.00 57 1016.0
20260506001524 22 87 3.2 12.9 0.00 0.00 0.00 57 1015.8
20260506000034 22 117 3.2 12.9 0.00 0.00 0.00 55 1015.6
20260505234523 23 87 3.2 9.7 0.00 0.00 0.00 54 1015.4
20260505233021 23 71 1.6 12.9 0.00 0.00 0.00 54 1015.3
20260505231522 23 67 1.6 12.9 0.00 0.00 0.00 52 1014.9
20260505230021 24 67 1.6 16.1 0.00 0.00 0.00 50 1014.5
20260505224533 25 117 9.7 24.1 0.00 0.00 0.00 48 1014.2
20260505223028 25 92 8.0 16.1 0.00 0.00 0.00 46 1014.2
20260505221519 26 60 1.6 9.7 0.00 0.00 0.00 44 1014.0
20260505220032 27 76 4.8 12.9 0.00 0.00 0.00 41 1013.7
20260505214536 27 84 3.2 12.9 0.00 0.00 0.00 40 1013.6
20260505213025 27 244 4.8 14.5 0.00 0.00 0.00 41 1013.5
20260505211517 26 90 9.7 16.1 0.00 0.00 0.00 43 1013.5
20260505210017 27 76 8.0 17.7 0.00 0.00 0.00 40 1013.4
20260505204523 27 155 6.4 14.5 0.00 0.00 0.00 42 1013.6
20260505203011 26 78 6.4 16.1 0.00 0.00 0.00 45 1013.6
20260505201510 27 252 0.0 19.3 0.00 0.00 0.00 44 1013.6
20260505200010 26 88 3.2 12.9 0.00 0.00 0.00 45 1013.9
20260505194507 26 74 1.6 14.5 0.00 0.00 0.00 48 1014.3
20260505193010 26 5 1.6 12.9 0.00 0.00 0.00 47 1014.6
20260505191504 25 92 9.7 17.7 0.00 0.00 0.00 50 1014.9
20260505190118 25 82 14.5 25.7 0.00 0.00 0.00 50 1015.3
20260505184609 25 75 8.0 19.3 0.00 0.00 0.00 51 1015.5
20260505183056 25 61 11.3 19.3 0.00 0.00 0.00 51 1015.7
20260505181559 25 76 8.0 19.3 0.00 0.00 0.00 52 1015.8
20260505180055 25 94 4.8 14.5 0.00 0.00 0.00 51 1015.8
20260505174554 25 88 8.0 20.9 0.00 0.00 0.00 51 1015.8
20260505173052 25 73 9.7 17.7 0.00 0.00 0.00 49 1016.0
20260505171551 25 68 8.0 24.1 0.00 0.00 0.00 48 1016.0
20260505170057 26 360 1.6 17.7 0.00 0.00 0.00 46 1016.2
20260505164546 26 290 4.8 12.9 0.00 0.00 0.00 47 1016.4
20260505163043 26 137 0.0 12.9 0.00 0.00 0.00 48 1016.5
20260505161541 25 88 8.0 14.5 0.00 0.00 0.00 49 1016.7
20260505153033 23 279 3.2 12.9 0.00 0.00 0.00 51 1017.1
20260505151531 23 50 4.8 16.1 0.00 0.00 0.00 52 1017.3